Regional Weather Roundup
Issued by NWS Goodland, KS

Home | Current Version | Previous Version | Graphics & Text | Print | Product List | Glossary On
Versions: 1 2 3 4 5 6 7 8 9 10 11 12 13 14 15 16 17 18 19 20 21 22 23 24 25 26 27 28 29 30 31 32 33 34 35 36 37 38 39 40 41 42 43 44 45 46 47 48 49 50
412
ASUS43 KGLD 222259
RWRGLD

GOODLAND FORECAST AREA HOURLY WEATHER ROUNDUP
NATIONAL WEATHER SERVICE GOODLAND KS
500 PM MDT SAT JUL 22 2017

...OFFICIAL OBSERVATIONS...

CITY           SKY/WX    TMP DP  RH WIND       PRES   REMARKS
GOODLAND KS    CLOUDY    85  45  24 NE16G23   30.03F
HILL CITY KS   CLOUDY    86  62  44 NE20G26   29.98R THUNDER
IMPERIAL NEB   CLOUDY    89  38  16 E13       30.04F
MCCOOK NEB     PTSUNNY   85  58  39 N13       29.99F
AKRON CO       SUNNY     81  44  27 SE15      30.13F
BURLINGTON CO  CLOUDY    83  50  31 E15       30.08F
LIMON CO       MOSUNNY   82  58  43 E17G23    30.18R
$$

...UNOFFICIAL OBSERVATIONS...

CITY           SKY/WX    TMP DP  RH WIND       PRES   REMARKS
LENORA KS        N/A     85  32  15 MISG        N/A
NORTON KS      MOSUNNY   86  59  39 N16       29.98R
SHARON SPRINGS   N/A     82  61  49 N10         N/A
TRENTON NEB      N/A     81  32  17 SE6         N/A
KIT CARSON CO    N/A     83  57  41 MISG        N/A
YUMA CO        FAIR      81  46  30 SE8       30.11F
$$




USA.gov is the U.S. government's official web portal to all federal, state and local government web resources and services.